Location: Viterbo
(42.4170°N, 12.1000°E)
Time: 19:45:41
(UTC+01:00)

ISS - Visible Passes

Search period start: 27 February 2021 00:00
Search period end: 09 March 2021 00:00
Orbit: 417 x 422 km, 51.6° (Epoch: 27 February)

Date Brightness Start Highest point End Pass type
(mag) Time Alt. Az. Time Alt. Az. Time Alt. Az.
27 Feb -2.1 04:52:06 28° NNE 04:52:06 28° NNE 04:54:13 10° NE visible
28 Feb -0.5 04:06:30 12° NE 04:06:30 12° NE 04:06:50 10° NE visible
28 Feb -1.7 05:39:28 14° NW 05:40:57 18° N 05:43:24 10° NE visible
01 Mar -1.7 04:53:50 20° N 04:53:50 20° N 04:55:57 10° NE visible
02 Mar -0.5 04:08:10 12° NE 04:08:10 12° NE 04:08:32 10° NE visible
02 Mar -1.5 05:41:07 11° NW 05:43:17 17° N 05:45:34 10° NE visible
03 Mar -1.5 04:55:27 17° N 04:55:34 17° N 04:57:53 10° NE visible
04 Mar -0.7 04:09:46 13° NNE 04:09:46 13° NNE 04:10:20 10° NE visible
04 Mar -1.6 05:43:03 10° NW 05:45:35 19° NNE 05:48:07 10° ENE visible
05 Mar -1.5 04:57:03 16° NNW 04:57:53 17° N 05:00:15 10° NE visible
06 Mar -0.8 04:11:24 14° NNE 04:11:24 14° NNE 04:12:27 10° NE visible
06 Mar -2.1 05:44:47 10° NW 05:47:46 29° NNE 05:50:45 10° E visible
07 Mar -1.7 04:58:44 18° NNW 05:00:07 23° NNE 05:02:53 10° ENE visible
08 Mar -1.2 04:13:10 18° NNE 04:13:10 18° NNE 04:14:58 10° ENE visible
08 Mar -3.3 05:46:26 10° NW 05:49:46 59° NNE 05:53:05 10° ESE visible
